Index of /20260428/WXO-DD/model_rdps/10km/00/068
Name Last modified Size Description
Parent Directory -
20260428T00Z_MSC_RDPS_AbsoluteVorticity_IsbL-0250_RLatLon0.09_PT068H.grib2 2026-04-28 03:01 506K
20260428T00Z_MSC_RDPS_AbsoluteVorticity_IsbL-0500_RLatLon0.09_PT068H.grib2 2026-04-28 03:01 571K
20260428T00Z_MSC_RDPS_AbsoluteVorticity_IsbL-0700_RLatLon0.09_PT068H.grib2 2026-04-28 03:01 623K
20260428T00Z_MSC_RDPS_AbsoluteVorticity_IsbL-0850_RLatLon0.09_PT068H.grib2 2026-04-28 03:01 772K
20260428T00Z_MSC_RDPS_AirTemp_AGL-120m_RLatLon0.09_PT068H.grib2 2026-04-28 03:01 393K
20260428T00Z_MSC_RDPS_AirTemp_AGL-2m_RLatLon0.09_PT068H.grib2 2026-04-28 03:01 628K
20260428T00Z_MSC_RDPS_AirTemp_AGL-40m_RLatLon0.09_PT068H.grib2 2026-04-28 03:01 403K
20260428T00Z_MSC_RDPS_AirTemp_AGL-80m_RLatLon0.09_PT068H.grib2 2026-04-28 03:01 397K
20260428T00Z_MSC_RDPS_AirTemp_IsbL-0001_RLatLon0.09_PT068H.grib2 2026-04-28 03:01 283K
20260428T00Z_MSC_RDPS_AirTemp_IsbL-0005_RLatLon0.09_PT068H.grib2 2026-04-28 03:01 291K
20260428T00Z_MSC_RDPS_AirTemp_IsbL-0010_RLatLon0.09_PT068H.grib2 2026-04-28 03:01 305K
20260428T00Z_MSC_RDPS_AirTemp_IsbL-0020_RLatLon0.09_PT068H.grib2 2026-04-28 03:01 321K
20260428T00Z_MSC_RDPS_AirTemp_IsbL-0030_RLatLon0.09_PT068H.grib2 2026-04-28 03:01 345K
20260428T00Z_MSC_RDPS_AirTemp_IsbL-0050_RLatLon0.09_PT068H.grib2 2026-04-28 03:01 315K
20260428T00Z_MSC_RDPS_AirTemp_IsbL-0100_RLatLon0.09_PT068H.grib2 2026-04-28 03:01 425K
20260428T00Z_MSC_RDPS_AirTemp_IsbL-0150_RLatLon0.09_PT068H.grib2 2026-04-28 03:01 423K
20260428T00Z_MSC_RDPS_AirTemp_IsbL-0175_RLatLon0.09_PT068H.grib2 2026-04-28 03:01 413K
20260428T00Z_MSC_RDPS_AirTemp_IsbL-0200_RLatLon0.09_PT068H.grib2 2026-04-28 03:01 417K
20260428T00Z_MSC_RDPS_AirTemp_IsbL-0225_RLatLon0.09_PT068H.grib2 2026-04-28 03:01 419K
20260428T00Z_MSC_RDPS_AirTemp_IsbL-0250_RLatLon0.09_PT068H.grib2 2026-04-28 03:01 427K
20260428T00Z_MSC_RDPS_AirTemp_IsbL-0275_RLatLon0.09_PT068H.grib2 2026-04-28 03:01 406K
20260428T00Z_MSC_RDPS_AirTemp_IsbL-0300_RLatLon0.09_PT068H.grib2 2026-04-28 03:01 411K
20260428T00Z_MSC_RDPS_AirTemp_IsbL-0350_RLatLon0.09_PT068H.grib2 2026-04-28 03:01 424K
20260428T00Z_MSC_RDPS_AirTemp_IsbL-0400_RLatLon0.09_PT068H.grib2 2026-04-28 03:01 425K
20260428T00Z_MSC_RDPS_AirTemp_IsbL-0450_RLatLon0.09_PT068H.grib2 2026-04-28 03:01 397K
20260428T00Z_MSC_RDPS_AirTemp_IsbL-0500_RLatLon0.09_PT068H.grib2 2026-04-28 03:01 406K
20260428T00Z_MSC_RDPS_AirTemp_IsbL-0550_RLatLon0.09_PT068H.grib2 2026-04-28 03:01 425K
20260428T00Z_MSC_RDPS_AirTemp_IsbL-0600_RLatLon0.09_PT068H.grib2 2026-04-28 03:01 447K
20260428T00Z_MSC_RDPS_AirTemp_IsbL-0650_RLatLon0.09_PT068H.grib2 2026-04-28 03:01 360K
20260428T00Z_MSC_RDPS_AirTemp_IsbL-0700_RLatLon0.09_PT068H.grib2 2026-04-28 03:01 381K
20260428T00Z_MSC_RDPS_AirTemp_IsbL-0750_RLatLon0.09_PT068H.grib2 2026-04-28 03:01 412K
20260428T00Z_MSC_RDPS_AirTemp_IsbL-0800_RLatLon0.09_PT068H.grib2 2026-04-28 03:01 449K
20260428T00Z_MSC_RDPS_AirTemp_IsbL-0850_RLatLon0.09_PT068H.grib2 2026-04-28 03:01 499K
20260428T00Z_MSC_RDPS_AirTemp_IsbL-0875_RLatLon0.09_PT068H.grib2 2026-04-28 03:01 521K
20260428T00Z_MSC_RDPS_AirTemp_IsbL-0900_RLatLon0.09_PT068H.grib2 2026-04-28 03:01 531K
20260428T00Z_MSC_RDPS_AirTemp_IsbL-0925_RLatLon0.09_PT068H.grib2 2026-04-28 03:01 532K
20260428T00Z_MSC_RDPS_AirTemp_IsbL-0950_RLatLon0.09_PT068H.grib2 2026-04-28 03:01 534K
20260428T00Z_MSC_RDPS_AirTemp_IsbL-0970_RLatLon0.09_PT068H.grib2 2026-04-28 03:01 536K
20260428T00Z_MSC_RDPS_AirTemp_IsbL-0985_RLatLon0.09_PT068H.grib2 2026-04-28 03:01 527K
20260428T00Z_MSC_RDPS_AirTemp_IsbL-1000_RLatLon0.09_PT068H.grib2 2026-04-28 03:01 515K
20260428T00Z_MSC_RDPS_AirTemp_IsbL-1015_RLatLon0.09_PT068H.grib2 2026-04-28 03:01 511K
20260428T00Z_MSC_RDPS_Albedo_Sfc_RLatLon0.09_PT068H.grib2 2026-04-28 03:01 163K
20260428T00Z_MSC_RDPS_CAPE_Sfc_RLatLon0.09_PT068H.grib2 2026-04-28 03:01 1.8M
20260428T00Z_MSC_RDPS_CIN_Sfc_RLatLon0.09_PT068H.grib2 2026-04-28 03:01 1.2M
20260428T00Z_MSC_RDPS_CloudWater_EAtm_RLatLon0.09_PT068H.grib2 2026-04-28 03:01 223K
20260428T00Z_MSC_RDPS_ConvectivePrecip-Accum_Sfc_RLatLon0.09_PT068H.grib2 2026-04-28 03:01 1.2M
20260428T00Z_MSC_RDPS_DewPointDepression_AGL-2m_RLatLon0.09_PT068H.grib2 2026-04-28 03:01 417K
20260428T00Z_MSC_RDPS_DewPointDepression_IsbL-0001_RLatLon0.09_PT068H.grib2 2026-04-28 03:01 193
20260428T00Z_MSC_RDPS_DewPointDepression_IsbL-0005_RLatLon0.09_PT068H.grib2 2026-04-28 03:01 193
20260428T00Z_MSC_RDPS_DewPointDepression_IsbL-0010_RLatLon0.09_PT068H.grib2 2026-04-28 03:01 193
20260428T00Z_MSC_RDPS_DewPointDepression_IsbL-0020_RLatLon0.09_PT068H.grib2 2026-04-28 03:01 193
20260428T00Z_MSC_RDPS_DewPointDepression_IsbL-0030_RLatLon0.09_PT068H.grib2 2026-04-28 03:01 193
20260428T00Z_MSC_RDPS_DewPointDepression_IsbL-0050_RLatLon0.09_PT068H.grib2 2026-04-28 03:01 82K
20260428T00Z_MSC_RDPS_DewPointDepression_IsbL-0100_RLatLon0.09_PT068H.grib2 2026-04-28 03:01 126K
20260428T00Z_MSC_RDPS_DewPointDepression_IsbL-0150_RLatLon0.09_PT068H.grib2 2026-04-28 03:01 150K
20260428T00Z_MSC_RDPS_DewPointDepression_IsbL-0175_RLatLon0.09_PT068H.grib2 2026-04-28 03:01 182K
20260428T00Z_MSC_RDPS_DewPointDepression_IsbL-0200_RLatLon0.09_PT068H.grib2 2026-04-28 03:01 222K
20260428T00Z_MSC_RDPS_DewPointDepression_IsbL-0225_RLatLon0.09_PT068H.grib2 2026-04-28 03:01 266K
20260428T00Z_MSC_RDPS_DewPointDepression_IsbL-0250_RLatLon0.09_PT068H.grib2 2026-04-28 03:01 303K
20260428T00Z_MSC_RDPS_DewPointDepression_IsbL-0275_RLatLon0.09_PT068H.grib2 2026-04-28 03:01 309K
20260428T00Z_MSC_RDPS_DewPointDepression_IsbL-0300_RLatLon0.09_PT068H.grib2 2026-04-28 03:01 329K
20260428T00Z_MSC_RDPS_DewPointDepression_IsbL-0350_RLatLon0.09_PT068H.grib2 2026-04-28 03:01 331K
20260428T00Z_MSC_RDPS_DewPointDepression_IsbL-0400_RLatLon0.09_PT068H.grib2 2026-04-28 03:01 340K
20260428T00Z_MSC_RDPS_DewPointDepression_IsbL-0450_RLatLon0.09_PT068H.grib2 2026-04-28 03:01 348K
20260428T00Z_MSC_RDPS_DewPointDepression_IsbL-0500_RLatLon0.09_PT068H.grib2 2026-04-28 03:01 355K
20260428T00Z_MSC_RDPS_DewPointDepression_IsbL-0550_RLatLon0.09_PT068H.grib2 2026-04-28 03:01 367K
20260428T00Z_MSC_RDPS_DewPointDepression_IsbL-0600_RLatLon0.09_PT068H.grib2 2026-04-28 03:01 383K
20260428T00Z_MSC_RDPS_DewPointDepression_IsbL-0650_RLatLon0.09_PT068H.grib2 2026-04-28 03:01 390K
20260428T00Z_MSC_RDPS_DewPointDepression_IsbL-0700_RLatLon0.09_PT068H.grib2 2026-04-28 03:01 400K
20260428T00Z_MSC_RDPS_DewPointDepression_IsbL-0750_RLatLon0.09_PT068H.grib2 2026-04-28 03:01 420K
20260428T00Z_MSC_RDPS_DewPointDepression_IsbL-0800_RLatLon0.09_PT068H.grib2 2026-04-28 03:01 448K
20260428T00Z_MSC_RDPS_DewPointDepression_IsbL-0850_RLatLon0.09_PT068H.grib2 2026-04-28 03:01 476K
20260428T00Z_MSC_RDPS_DewPointDepression_IsbL-0875_RLatLon0.09_PT068H.grib2 2026-04-28 03:01 482K
20260428T00Z_MSC_RDPS_DewPointDepression_IsbL-0900_RLatLon0.09_PT068H.grib2 2026-04-28 03:01 474K
20260428T00Z_MSC_RDPS_DewPointDepression_IsbL-0925_RLatLon0.09_PT068H.grib2 2026-04-28 03:01 457K
20260428T00Z_MSC_RDPS_DewPointDepression_IsbL-0950_RLatLon0.09_PT068H.grib2 2026-04-28 03:01 448K
20260428T00Z_MSC_RDPS_DewPointDepression_IsbL-0970_RLatLon0.09_PT068H.grib2 2026-04-28 03:01 438K
20260428T00Z_MSC_RDPS_DewPointDepression_IsbL-0985_RLatLon0.09_PT068H.grib2 2026-04-28 03:01 433K
20260428T00Z_MSC_RDPS_DewPointDepression_IsbL-1000_RLatLon0.09_PT068H.grib2 2026-04-28 03:01 429K
20260428T00Z_MSC_RDPS_DewPointDepression_IsbL-1015_RLatLon0.09_PT068H.grib2 2026-04-28 03:01 419K
20260428T00Z_MSC_RDPS_DewPoint_AGL-2m_RLatLon0.09_PT068H.grib2 2026-04-28 03:01 397K
20260428T00Z_MSC_RDPS_DownwardLongwaveRadiationFlux-Accum_Sfc_RLatLon0.09_PT068H.grib2 2026-04-28 03:01 416K
20260428T00Z_MSC_RDPS_DownwardShortwaveRadiationFlux-Accum_NTAtm_RLatLon0.09_PT068H.grib2 2026-04-28 03:01 108K
20260428T00Z_MSC_RDPS_DownwardShortwaveRadiationFlux-Accum_Sfc_RLatLon0.09_PT068H.grib2 2026-04-28 03:01 604K
20260428T00Z_MSC_RDPS_FreezingRain-Accum1h_Sfc_RLatLon0.09_PT068H.grib2 2026-04-28 03:01 12K
20260428T00Z_MSC_RDPS_FreezingRain-Accum_Sfc_RLatLon0.09_PT068H.grib2 2026-04-28 03:01 224K
20260428T00Z_MSC_RDPS_GeopotentialHeight_IsbL-0001_RLatLon0.09_PT068H.grib2 2026-04-28 03:01 321K
20260428T00Z_MSC_RDPS_GeopotentialHeight_IsbL-0005_RLatLon0.09_PT068H.grib2 2026-04-28 03:01 338K
20260428T00Z_MSC_RDPS_GeopotentialHeight_IsbL-0010_RLatLon0.09_PT068H.grib2 2026-04-28 03:01 340K
20260428T00Z_MSC_RDPS_GeopotentialHeight_IsbL-0020_RLatLon0.09_PT068H.grib2 2026-04-28 03:01 306K
20260428T00Z_MSC_RDPS_GeopotentialHeight_IsbL-0030_RLatLon0.09_PT068H.grib2 2026-04-28 03:01 308K
20260428T00Z_MSC_RDPS_GeopotentialHeight_IsbL-0050_RLatLon0.09_PT068H.grib2 2026-04-28 03:01 309K
20260428T00Z_MSC_RDPS_GeopotentialHeight_IsbL-0100_RLatLon0.09_PT068H.grib2 2026-04-28 03:01 285K
20260428T00Z_MSC_RDPS_GeopotentialHeight_IsbL-0150_RLatLon0.09_PT068H.grib2 2026-04-28 03:01 229K
20260428T00Z_MSC_RDPS_GeopotentialHeight_IsbL-0175_RLatLon0.09_PT068H.grib2 2026-04-28 03:01 263K
20260428T00Z_MSC_RDPS_GeopotentialHeight_IsbL-0200_RLatLon0.09_PT068H.grib2 2026-04-28 03:01 265K
20260428T00Z_MSC_RDPS_GeopotentialHeight_IsbL-0225_RLatLon0.09_PT068H.grib2 2026-04-28 03:01 267K
20260428T00Z_MSC_RDPS_GeopotentialHeight_IsbL-0250_RLatLon0.09_PT068H.grib2 2026-04-28 03:01 268K
20260428T00Z_MSC_RDPS_GeopotentialHeight_IsbL-0275_RLatLon0.09_PT068H.grib2 2026-04-28 03:01 266K
20260428T00Z_MSC_RDPS_GeopotentialHeight_IsbL-0300_RLatLon0.09_PT068H.grib2 2026-04-28 03:01 235K
20260428T00Z_MSC_RDPS_GeopotentialHeight_IsbL-0350_RLatLon0.09_PT068H.grib2 2026-04-28 03:01 231K
20260428T00Z_MSC_RDPS_GeopotentialHeight_IsbL-0400_RLatLon0.09_PT068H.grib2 2026-04-28 03:01 228K
20260428T00Z_MSC_RDPS_GeopotentialHeight_IsbL-0450_RLatLon0.09_PT068H.grib2 2026-04-28 03:01 296K
20260428T00Z_MSC_RDPS_GeopotentialHeight_IsbL-0500_RLatLon0.09_PT068H.grib2 2026-04-28 03:01 291K
20260428T00Z_MSC_RDPS_GeopotentialHeight_IsbL-0550_RLatLon0.09_PT068H.grib2 2026-04-28 03:01 287K
20260428T00Z_MSC_RDPS_GeopotentialHeight_IsbL-0600_RLatLon0.09_PT068H.grib2 2026-04-28 03:01 256K
20260428T00Z_MSC_RDPS_GeopotentialHeight_IsbL-0650_RLatLon0.09_PT068H.grib2 2026-04-28 03:01 255K
20260428T00Z_MSC_RDPS_GeopotentialHeight_IsbL-0700_RLatLon0.09_PT068H.grib2 2026-04-28 03:01 336K
20260428T00Z_MSC_RDPS_GeopotentialHeight_IsbL-0750_RLatLon0.09_PT068H.grib2 2026-04-28 03:01 339K
20260428T00Z_MSC_RDPS_GeopotentialHeight_IsbL-0800_RLatLon0.09_PT068H.grib2 2026-04-28 03:01 345K
20260428T00Z_MSC_RDPS_GeopotentialHeight_IsbL-0850_RLatLon0.09_PT068H.grib2 2026-04-28 03:01 354K
20260428T00Z_MSC_RDPS_GeopotentialHeight_IsbL-0875_RLatLon0.09_PT068H.grib2 2026-04-28 03:01 358K
20260428T00Z_MSC_RDPS_GeopotentialHeight_IsbL-0900_RLatLon0.09_PT068H.grib2 2026-04-28 03:01 395K
20260428T00Z_MSC_RDPS_GeopotentialHeight_IsbL-0925_RLatLon0.09_PT068H.grib2 2026-04-28 03:01 398K
20260428T00Z_MSC_RDPS_GeopotentialHeight_IsbL-0950_RLatLon0.09_PT068H.grib2 2026-04-28 03:01 402K
20260428T00Z_MSC_RDPS_GeopotentialHeight_IsbL-0970_RLatLon0.09_PT068H.grib2 2026-04-28 03:01 409K
20260428T00Z_MSC_RDPS_GeopotentialHeight_IsbL-0985_RLatLon0.09_PT068H.grib2 2026-04-28 03:01 419K
20260428T00Z_MSC_RDPS_GeopotentialHeight_IsbL-1000_RLatLon0.09_PT068H.grib2 2026-04-28 03:01 432K
20260428T00Z_MSC_RDPS_GeopotentialHeight_IsbL-1015_RLatLon0.09_PT068H.grib2 2026-04-28 03:01 449K
20260428T00Z_MSC_RDPS_Humidex_Sfc_RLatLon0.09_PT068H.grib2 2026-04-28 03:01 2.4M
20260428T00Z_MSC_RDPS_IcePellets-Accum1h_Sfc_RLatLon0.09_PT068H.grib2 2026-04-28 03:01 1.7K
20260428T00Z_MSC_RDPS_IcePellets-Accum_Sfc_RLatLon0.09_PT068H.grib2 2026-04-28 03:01 33K
20260428T00Z_MSC_RDPS_KIndex_Sfc_RLatLon0.09_PT068H.grib2 2026-04-28 03:01 2.5M
20260428T00Z_MSC_RDPS_LatentHeatNetFlux_Sfc_RLatLon0.09_PT068H.grib2 2026-04-28 03:01 298K
20260428T00Z_MSC_RDPS_LiftedIndex-MU-VT_IsbL-0500_RLatLon0.09_PT068H.grib2 2026-04-28 03:01 2.4M
20260428T00Z_MSC_RDPS_NetLongwaveRadiationFlux-Accum_Sfc_RLatLon0.09_PT068H.grib2 2026-04-28 03:01 592K
20260428T00Z_MSC_RDPS_NetShortwaveRadiationFlux-Accum_Sfc_RLatLon0.09_PT068H.grib2 2026-04-28 03:01 608K
20260428T00Z_MSC_RDPS_PlanetaryBoundaryLayerHeight_Sfc_RLatLon0.09_PT068H.grib2 2026-04-28 03:01 1.0M
20260428T00Z_MSC_RDPS_Precip-Accum1h_Sfc_RLatLon0.09_PT068H.grib2 2026-04-28 03:01 1.2M
20260428T00Z_MSC_RDPS_Precip-Accum_Sfc_RLatLon0.09_PT068H.grib2 2026-04-28 03:01 2.1M
20260428T00Z_MSC_RDPS_PrecipRate_Sfc_RLatLon0.09_PT068H.grib2 2026-04-28 03:01 160K
20260428T00Z_MSC_RDPS_PrecipType-Instant_Sfc_RLatLon0.09_PT068H.grib2 2026-04-28 03:01 552K
20260428T00Z_MSC_RDPS_Pressure-Trend3h_Sfc_RLatLon0.09_PT068H.grib2 2026-04-28 03:01 1.2M
20260428T00Z_MSC_RDPS_Pressure_MSL_RLatLon0.09_PT068H.grib2 2026-04-28 03:01 298K
20260428T00Z_MSC_RDPS_Pressure_PVU-1.5_RLatLon0.09_PT068H.grib2 2026-04-28 03:01 2.3M
20260428T00Z_MSC_RDPS_Pressure_PVU-1_RLatLon0.09_PT068H.grib2 2026-04-28 03:01 2.4M
20260428T00Z_MSC_RDPS_Pressure_PVU-2_RLatLon0.09_PT068H.grib2 2026-04-28 03:01 2.4M
20260428T00Z_MSC_RDPS_Pressure_Sfc_RLatLon0.09_PT068H.grib2 2026-04-28 03:01 500K
20260428T00Z_MSC_RDPS_RadiativeTemp_Sfc_RLatLon0.09_PT068H.grib2 2026-04-28 03:01 329K
20260428T00Z_MSC_RDPS_Rain-Accum1h_Sfc_RLatLon0.09_PT068H.grib2 2026-04-28 03:01 527K
20260428T00Z_MSC_RDPS_Rain-Accum_Sfc_RLatLon0.09_PT068H.grib2 2026-04-28 03:01 1.7M
20260428T00Z_MSC_RDPS_RelativeHumidity_AGL-2m_RLatLon0.09_PT068H.grib2 2026-04-28 03:01 1.0M
20260428T00Z_MSC_RDPS_RelativeHumidity_IsbL-0010_RLatLon0.09_PT068H.grib2 2026-04-28 03:01 621K
20260428T00Z_MSC_RDPS_RelativeHumidity_IsbL-0020_RLatLon0.09_PT068H.grib2 2026-04-28 03:01 669K
20260428T00Z_MSC_RDPS_RelativeHumidity_IsbL-0030_RLatLon0.09_PT068H.grib2 2026-04-28 03:01 606K
20260428T00Z_MSC_RDPS_RelativeHumidity_IsbL-0050_RLatLon0.09_PT068H.grib2 2026-04-28 03:01 319K
20260428T00Z_MSC_RDPS_RelativeHumidity_IsbL-0100_RLatLon0.09_PT068H.grib2 2026-04-28 03:01 279K
20260428T00Z_MSC_RDPS_RelativeHumidity_IsbL-0150_RLatLon0.09_PT068H.grib2 2026-04-28 03:01 411K
20260428T00Z_MSC_RDPS_RelativeHumidity_IsbL-0175_RLatLon0.09_PT068H.grib2 2026-04-28 03:01 480K
20260428T00Z_MSC_RDPS_RelativeHumidity_IsbL-0200_RLatLon0.09_PT068H.grib2 2026-04-28 03:01 559K
20260428T00Z_MSC_RDPS_RelativeHumidity_IsbL-0225_RLatLon0.09_PT068H.grib2 2026-04-28 03:01 629K
20260428T00Z_MSC_RDPS_RelativeHumidity_IsbL-0250_RLatLon0.09_PT068H.grib2 2026-04-28 03:01 703K
20260428T00Z_MSC_RDPS_RelativeHumidity_IsbL-0275_RLatLon0.09_PT068H.grib2 2026-04-28 03:01 727K
20260428T00Z_MSC_RDPS_RelativeHumidity_IsbL-0300_RLatLon0.09_PT068H.grib2 2026-04-28 03:01 771K
20260428T00Z_MSC_RDPS_RelativeHumidity_IsbL-0350_RLatLon0.09_PT068H.grib2 2026-04-28 03:01 783K
20260428T00Z_MSC_RDPS_RelativeHumidity_IsbL-0400_RLatLon0.09_PT068H.grib2 2026-04-28 03:01 794K
20260428T00Z_MSC_RDPS_RelativeHumidity_IsbL-0450_RLatLon0.09_PT068H.grib2 2026-04-28 03:01 798K
20260428T00Z_MSC_RDPS_RelativeHumidity_IsbL-0500_RLatLon0.09_PT068H.grib2 2026-04-28 03:01 806K
20260428T00Z_MSC_RDPS_RelativeHumidity_IsbL-0550_RLatLon0.09_PT068H.grib2 2026-04-28 03:01 825K
20260428T00Z_MSC_RDPS_RelativeHumidity_IsbL-0600_RLatLon0.09_PT068H.grib2 2026-04-28 03:01 854K
20260428T00Z_MSC_RDPS_RelativeHumidity_IsbL-0650_RLatLon0.09_PT068H.grib2 2026-04-28 03:01 867K
20260428T00Z_MSC_RDPS_RelativeHumidity_IsbL-0700_RLatLon0.09_PT068H.grib2 2026-04-28 03:01 891K
20260428T00Z_MSC_RDPS_RelativeHumidity_IsbL-0750_RLatLon0.09_PT068H.grib2 2026-04-28 03:01 933K
20260428T00Z_MSC_RDPS_RelativeHumidity_IsbL-0800_RLatLon0.09_PT068H.grib2 2026-04-28 03:01 1.0M
20260428T00Z_MSC_RDPS_RelativeHumidity_IsbL-0850_RLatLon0.09_PT068H.grib2 2026-04-28 03:01 1.0M
20260428T00Z_MSC_RDPS_RelativeHumidity_IsbL-0875_RLatLon0.09_PT068H.grib2 2026-04-28 03:01 1.1M
20260428T00Z_MSC_RDPS_RelativeHumidity_IsbL-0900_RLatLon0.09_PT068H.grib2 2026-04-28 03:01 1.1M
20260428T00Z_MSC_RDPS_RelativeHumidity_IsbL-0925_RLatLon0.09_PT068H.grib2 2026-04-28 03:01 1.1M
20260428T00Z_MSC_RDPS_RelativeHumidity_IsbL-0950_RLatLon0.09_PT068H.grib2 2026-04-28 03:01 1.1M
20260428T00Z_MSC_RDPS_RelativeHumidity_IsbL-0970_RLatLon0.09_PT068H.grib2 2026-04-28 03:01 1.0M
20260428T00Z_MSC_RDPS_RelativeHumidity_IsbL-0985_RLatLon0.09_PT068H.grib2 2026-04-28 03:01 1.0M
20260428T00Z_MSC_RDPS_RelativeHumidity_IsbL-1000_RLatLon0.09_PT068H.grib2 2026-04-28 03:01 1.0M
20260428T00Z_MSC_RDPS_RelativeHumidity_IsbL-1015_RLatLon0.09_PT068H.grib2 2026-04-28 03:01 1.0M
20260428T00Z_MSC_RDPS_Runoff-Accum_Sfc_RLatLon0.09_PT068H.grib2 2026-04-28 03:01 59K
20260428T00Z_MSC_RDPS_SWEATIndex_Sfc_RLatLon0.09_PT068H.grib2 2026-04-28 03:01 2.4M
20260428T00Z_MSC_RDPS_SeeingIndex_EAtm_RLatLon0.09_PT068H.grib2 2026-04-28 03:01 1.0M
20260428T00Z_MSC_RDPS_SensibleHeatNetFlux_Sfc_RLatLon0.09_PT068H.grib2 2026-04-28 03:01 357K
20260428T00Z_MSC_RDPS_ShowalterIndex_IsbL-0500_RLatLon0.09_PT068H.grib2 2026-04-28 03:01 2.6M
20260428T00Z_MSC_RDPS_SkyTransparencyIndex_EAtm_RLatLon0.09_PT068H.grib2 2026-04-28 03:01 697K
20260428T00Z_MSC_RDPS_Snow-Accum1h_Sfc_RLatLon0.09_PT068H.grib2 2026-04-28 03:01 530K
20260428T00Z_MSC_RDPS_Snow-Accum_Sfc_RLatLon0.09_PT068H.grib2 2026-04-28 03:01 801K
20260428T00Z_MSC_RDPS_SnowDensity_Sfc_RLatLon0.09_PT068H.grib2 2026-04-28 03:01 184K
20260428T00Z_MSC_RDPS_SnowDepth_Sfc_RLatLon0.09_PT068H.grib2 2026-04-28 03:01 686K
20260428T00Z_MSC_RDPS_SoilTemp_DBS-0to10cm_RLatLon0.09_PT068H.grib2 2026-04-28 03:01 243K
20260428T00Z_MSC_RDPS_SoilTemp_Sfc_RLatLon0.09_PT068H.grib2 2026-04-28 03:01 290K
20260428T00Z_MSC_RDPS_SoilVolumetricIceContent_Sfc_RLatLon0.09_PT068H.grib2 2026-04-28 03:01 163K
20260428T00Z_MSC_RDPS_SoilVolumetricWaterContent_DBS-0to10cm_RLatLon0.09_PT068H.grib2 2026-04-28 03:01 268K
20260428T00Z_MSC_RDPS_SoilVolumetricWaterContent_DBS-0to1cm_RLatLon0.09_PT068H.grib2 2026-04-28 03:01 338K
20260428T00Z_MSC_RDPS_SpecificHumidity_AGL-120m_RLatLon0.09_PT068H.grib2 2026-04-28 03:01 496K
20260428T00Z_MSC_RDPS_SpecificHumidity_AGL-2m_RLatLon0.09_PT068H.grib2 2026-04-28 03:01 662K
20260428T00Z_MSC_RDPS_SpecificHumidity_AGL-40m_RLatLon0.09_PT068H.grib2 2026-04-28 03:01 500K
20260428T00Z_MSC_RDPS_SpecificHumidity_AGL-80m_RLatLon0.09_PT068H.grib2 2026-04-28 03:01 497K
20260428T00Z_MSC_RDPS_SpecificHumidity_IsbL-0001_RLatLon0.09_PT068H.grib2 2026-04-28 03:01 367K
20260428T00Z_MSC_RDPS_SpecificHumidity_IsbL-0005_RLatLon0.09_PT068H.grib2 2026-04-28 03:01 354K
20260428T00Z_MSC_RDPS_SpecificHumidity_IsbL-0010_RLatLon0.09_PT068H.grib2 2026-04-28 03:01 392K
20260428T00Z_MSC_RDPS_SpecificHumidity_IsbL-0020_RLatLon0.09_PT068H.grib2 2026-04-28 03:01 378K
20260428T00Z_MSC_RDPS_SpecificHumidity_IsbL-0030_RLatLon0.09_PT068H.grib2 2026-04-28 03:01 362K
20260428T00Z_MSC_RDPS_SpecificHumidity_IsbL-0050_RLatLon0.09_PT068H.grib2 2026-04-28 03:01 447K
20260428T00Z_MSC_RDPS_SpecificHumidity_IsbL-0100_RLatLon0.09_PT068H.grib2 2026-04-28 03:01 444K
20260428T00Z_MSC_RDPS_SpecificHumidity_IsbL-0150_RLatLon0.09_PT068H.grib2 2026-04-28 03:01 454K
20260428T00Z_MSC_RDPS_SpecificHumidity_IsbL-0175_RLatLon0.09_PT068H.grib2 2026-04-28 03:01 437K
20260428T00Z_MSC_RDPS_SpecificHumidity_IsbL-0200_RLatLon0.09_PT068H.grib2 2026-04-28 03:01 471K
20260428T00Z_MSC_RDPS_SpecificHumidity_IsbL-0225_RLatLon0.09_PT068H.grib2 2026-04-28 03:01 457K
20260428T00Z_MSC_RDPS_SpecificHumidity_IsbL-0250_RLatLon0.09_PT068H.grib2 2026-04-28 03:01 519K
20260428T00Z_MSC_RDPS_SpecificHumidity_IsbL-0275_RLatLon0.09_PT068H.grib2 2026-04-28 03:01 477K
20260428T00Z_MSC_RDPS_SpecificHumidity_IsbL-0300_RLatLon0.09_PT068H.grib2 2026-04-28 03:01 452K
20260428T00Z_MSC_RDPS_SpecificHumidity_IsbL-0350_RLatLon0.09_PT068H.grib2 2026-04-28 03:01 441K
20260428T00Z_MSC_RDPS_SpecificHumidity_IsbL-0400_RLatLon0.09_PT068H.grib2 2026-04-28 03:01 520K
20260428T00Z_MSC_RDPS_SpecificHumidity_IsbL-0450_RLatLon0.09_PT068H.grib2 2026-04-28 03:01 455K
20260428T00Z_MSC_RDPS_SpecificHumidity_IsbL-0500_RLatLon0.09_PT068H.grib2 2026-04-28 03:01 508K
20260428T00Z_MSC_RDPS_SpecificHumidity_IsbL-0550_RLatLon0.09_PT068H.grib2 2026-04-28 03:01 584K
20260428T00Z_MSC_RDPS_SpecificHumidity_IsbL-0600_RLatLon0.09_PT068H.grib2 2026-04-28 03:01 644K
20260428T00Z_MSC_RDPS_SpecificHumidity_IsbL-0650_RLatLon0.09_PT068H.grib2 2026-04-28 03:01 562K
20260428T00Z_MSC_RDPS_SpecificHumidity_IsbL-0700_RLatLon0.09_PT068H.grib2 2026-04-28 03:01 605K
20260428T00Z_MSC_RDPS_SpecificHumidity_IsbL-0750_RLatLon0.09_PT068H.grib2 2026-04-28 03:01 674K
20260428T00Z_MSC_RDPS_SpecificHumidity_IsbL-0800_RLatLon0.09_PT068H.grib2 2026-04-28 03:01 737K
20260428T00Z_MSC_RDPS_SpecificHumidity_IsbL-0850_RLatLon0.09_PT068H.grib2 2026-04-28 03:01 808K
20260428T00Z_MSC_RDPS_SpecificHumidity_IsbL-0875_RLatLon0.09_PT068H.grib2 2026-04-28 03:01 836K
20260428T00Z_MSC_RDPS_SpecificHumidity_IsbL-0900_RLatLon0.09_PT068H.grib2 2026-04-28 03:01 712K
20260428T00Z_MSC_RDPS_SpecificHumidity_IsbL-0925_RLatLon0.09_PT068H.grib2 2026-04-28 03:01 713K
20260428T00Z_MSC_RDPS_SpecificHumidity_IsbL-0950_RLatLon0.09_PT068H.grib2 2026-04-28 03:01 713K
20260428T00Z_MSC_RDPS_SpecificHumidity_IsbL-0970_RLatLon0.09_PT068H.grib2 2026-04-28 03:01 702K
20260428T00Z_MSC_RDPS_SpecificHumidity_IsbL-0985_RLatLon0.09_PT068H.grib2 2026-04-28 03:01 692K
20260428T00Z_MSC_RDPS_SpecificHumidity_IsbL-1000_RLatLon0.09_PT068H.grib2 2026-04-28 03:01 684K
20260428T00Z_MSC_RDPS_SpecificHumidity_IsbL-1015_RLatLon0.09_PT068H.grib2 2026-04-28 03:01 673K
20260428T00Z_MSC_RDPS_SpecificHumidity_Sfc_RLatLon0.09_PT068H.grib2 2026-04-28 03:01 342K
20260428T00Z_MSC_RDPS_StormRelativeHelicity_EtaL-10000_RLatLon0.09_PT068H.grib2 2026-04-28 03:01 1.1M
20260428T00Z_MSC_RDPS_StormSeverityIndex_EtaL-10000_RLatLon0.09_PT068H.grib2 2026-04-28 03:01 1.2M
20260428T00Z_MSC_RDPS_Thickness_IsbL-0850to0700_RLatLon0.09_PT068H.grib2 2026-04-28 03:01 178K
20260428T00Z_MSC_RDPS_Thickness_IsbL-1000to0500_RLatLon0.09_PT068H.grib2 2026-04-28 03:01 201K
20260428T00Z_MSC_RDPS_Thickness_IsbL-1000to0850_RLatLon0.09_PT068H.grib2 2026-04-28 03:01 189K
20260428T00Z_MSC_RDPS_TotalCloudCover_Sfc_RLatLon0.09_PT068H.grib2 2026-04-28 03:01 654K
20260428T00Z_MSC_RDPS_TotalTotalsIndex_Sfc_RLatLon0.09_PT068H.grib2 2026-04-28 03:01 2.4M
20260428T00Z_MSC_RDPS_UVIndex-ClearSky_Sfc_RLatLon0.09_PT068H.grib2 2026-04-28 03:01 217K
20260428T00Z_MSC_RDPS_UVIndex_Sfc_RLatLon0.09_PT068H.grib2 2026-04-28 03:01 505K
20260428T00Z_MSC_RDPS_UpwardLongwaveRadiationFlux_NTAtm_RLatLon0.09_PT068H.grib2 2026-04-28 03:01 386K
20260428T00Z_MSC_RDPS_UpwardShortwaveRadiationFlux_NTAtm_RLatLon0.09_PT068H.grib2 2026-04-28 03:01 537K
20260428T00Z_MSC_RDPS_VerticalVelocity_IsbL-0250_RLatLon0.09_PT068H.grib2 2026-04-28 03:01 434K
20260428T00Z_MSC_RDPS_VerticalVelocity_IsbL-0500_RLatLon0.09_PT068H.grib2 2026-04-28 03:01 543K
20260428T00Z_MSC_RDPS_VerticalVelocity_IsbL-0700_RLatLon0.09_PT068H.grib2 2026-04-28 03:01 595K
20260428T00Z_MSC_RDPS_VerticalVelocity_IsbL-0850_RLatLon0.09_PT068H.grib2 2026-04-28 03:01 529K
20260428T00Z_MSC_RDPS_VerticalWindShear_EtaL-6500_RLatLon0.09_PT068H.grib2 2026-04-28 03:01 1.2M
20260428T00Z_MSC_RDPS_WindChill_Sfc_RLatLon0.09_PT068H.grib2 2026-04-28 03:01 1.1M
20260428T00Z_MSC_RDPS_WindDir_AGL-10m_RLatLon0.09_PT068H.grib2 2026-04-28 03:01 968K
20260428T00Z_MSC_RDPS_WindDir_AGL-120m_RLatLon0.09_PT068H.grib2 2026-04-28 03:01 619K
20260428T00Z_MSC_RDPS_WindDir_AGL-40m_RLatLon0.09_PT068H.grib2 2026-04-28 03:01 639K
20260428T00Z_MSC_RDPS_WindDir_AGL-80m_RLatLon0.09_PT068H.grib2 2026-04-28 03:01 627K
20260428T00Z_MSC_RDPS_WindDir_IsbL-0001_RLatLon0.09_PT068H.grib2 2026-04-28 03:01 291K
20260428T00Z_MSC_RDPS_WindDir_IsbL-0005_RLatLon0.09_PT068H.grib2 2026-04-28 03:01 360K
20260428T00Z_MSC_RDPS_WindDir_IsbL-0010_RLatLon0.09_PT068H.grib2 2026-04-28 03:01 379K
20260428T00Z_MSC_RDPS_WindDir_IsbL-0020_RLatLon0.09_PT068H.grib2 2026-04-28 03:01 418K
20260428T00Z_MSC_RDPS_WindDir_IsbL-0030_RLatLon0.09_PT068H.grib2 2026-04-28 03:01 407K
20260428T00Z_MSC_RDPS_WindDir_IsbL-0050_RLatLon0.09_PT068H.grib2 2026-04-28 03:01 424K
20260428T00Z_MSC_RDPS_WindDir_IsbL-0100_RLatLon0.09_PT068H.grib2 2026-04-28 03:01 433K
20260428T00Z_MSC_RDPS_WindDir_IsbL-0150_RLatLon0.09_PT068H.grib2 2026-04-28 03:01 420K
20260428T00Z_MSC_RDPS_WindDir_IsbL-0175_RLatLon0.09_PT068H.grib2 2026-04-28 03:01 443K
20260428T00Z_MSC_RDPS_WindDir_IsbL-0200_RLatLon0.09_PT068H.grib2 2026-04-28 03:01 458K
20260428T00Z_MSC_RDPS_WindDir_IsbL-0225_RLatLon0.09_PT068H.grib2 2026-04-28 03:01 461K
20260428T00Z_MSC_RDPS_WindDir_IsbL-0250_RLatLon0.09_PT068H.grib2 2026-04-28 03:01 462K
20260428T00Z_MSC_RDPS_WindDir_IsbL-0275_RLatLon0.09_PT068H.grib2 2026-04-28 03:01 484K
20260428T00Z_MSC_RDPS_WindDir_IsbL-0300_RLatLon0.09_PT068H.grib2 2026-04-28 03:01 482K
20260428T00Z_MSC_RDPS_WindDir_IsbL-0350_RLatLon0.09_PT068H.grib2 2026-04-28 03:01 502K
20260428T00Z_MSC_RDPS_WindDir_IsbL-0400_RLatLon0.09_PT068H.grib2 2026-04-28 03:01 511K
20260428T00Z_MSC_RDPS_WindDir_IsbL-0450_RLatLon0.09_PT068H.grib2 2026-04-28 03:01 519K
20260428T00Z_MSC_RDPS_WindDir_IsbL-0500_RLatLon0.09_PT068H.grib2 2026-04-28 03:01 533K
20260428T00Z_MSC_RDPS_WindDir_IsbL-0550_RLatLon0.09_PT068H.grib2 2026-04-28 03:01 553K
20260428T00Z_MSC_RDPS_WindDir_IsbL-0600_RLatLon0.09_PT068H.grib2 2026-04-28 03:01 589K
20260428T00Z_MSC_RDPS_WindDir_IsbL-0650_RLatLon0.09_PT068H.grib2 2026-04-28 03:01 637K
20260428T00Z_MSC_RDPS_WindDir_IsbL-0700_RLatLon0.09_PT068H.grib2 2026-04-28 03:01 688K
20260428T00Z_MSC_RDPS_WindDir_IsbL-0750_RLatLon0.09_PT068H.grib2 2026-04-28 03:01 735K
20260428T00Z_MSC_RDPS_WindDir_IsbL-0800_RLatLon0.09_PT068H.grib2 2026-04-28 03:01 795K
20260428T00Z_MSC_RDPS_WindDir_IsbL-0850_RLatLon0.09_PT068H.grib2 2026-04-28 03:01 865K
20260428T00Z_MSC_RDPS_WindDir_IsbL-0875_RLatLon0.09_PT068H.grib2 2026-04-28 03:01 890K
20260428T00Z_MSC_RDPS_WindDir_IsbL-0900_RLatLon0.09_PT068H.grib2 2026-04-28 03:01 911K
20260428T00Z_MSC_RDPS_WindDir_IsbL-0925_RLatLon0.09_PT068H.grib2 2026-04-28 03:01 921K
20260428T00Z_MSC_RDPS_WindDir_IsbL-0950_RLatLon0.09_PT068H.grib2 2026-04-28 03:01 921K
20260428T00Z_MSC_RDPS_WindDir_IsbL-0970_RLatLon0.09_PT068H.grib2 2026-04-28 03:01 929K
20260428T00Z_MSC_RDPS_WindDir_IsbL-0985_RLatLon0.09_PT068H.grib2 2026-04-28 03:01 939K
20260428T00Z_MSC_RDPS_WindDir_IsbL-1000_RLatLon0.09_PT068H.grib2 2026-04-28 03:01 950K
20260428T00Z_MSC_RDPS_WindDir_IsbL-1015_RLatLon0.09_PT068H.grib2 2026-04-28 03:01 963K
20260428T00Z_MSC_RDPS_WindGust-Max_AGL-10m_RLatLon0.09_PT068H.grib2 2026-04-28 03:01 1.0M
20260428T00Z_MSC_RDPS_WindGust-Min_AGL-10m_RLatLon0.09_PT068H.grib2 2026-04-28 03:01 963K
20260428T00Z_MSC_RDPS_WindGust_AGL-10m_RLatLon0.09_PT068H.grib2 2026-04-28 03:01 1.0M
20260428T00Z_MSC_RDPS_WindSpeed_AGL-10m_RLatLon0.09_PT068H.grib2 2026-04-28 03:01 830K
20260428T00Z_MSC_RDPS_WindSpeed_AGL-120m_RLatLon0.09_PT068H.grib2 2026-04-28 03:01 542K
20260428T00Z_MSC_RDPS_WindSpeed_AGL-40m_RLatLon0.09_PT068H.grib2 2026-04-28 03:01 532K
20260428T00Z_MSC_RDPS_WindSpeed_AGL-80m_RLatLon0.09_PT068H.grib2 2026-04-28 03:01 531K
20260428T00Z_MSC_RDPS_WindSpeed_IsbL-0001_RLatLon0.09_PT068H.grib2 2026-04-28 03:01 333K
20260428T00Z_MSC_RDPS_WindSpeed_IsbL-0005_RLatLon0.09_PT068H.grib2 2026-04-28 03:01 385K
20260428T00Z_MSC_RDPS_WindSpeed_IsbL-0010_RLatLon0.09_PT068H.grib2 2026-04-28 03:01 405K
20260428T00Z_MSC_RDPS_WindSpeed_IsbL-0020_RLatLon0.09_PT068H.grib2 2026-04-28 03:01 329K
20260428T00Z_MSC_RDPS_WindSpeed_IsbL-0030_RLatLon0.09_PT068H.grib2 2026-04-28 03:01 328K
20260428T00Z_MSC_RDPS_WindSpeed_IsbL-0050_RLatLon0.09_PT068H.grib2 2026-04-28 03:01 351K
20260428T00Z_MSC_RDPS_WindSpeed_IsbL-0100_RLatLon0.09_PT068H.grib2 2026-04-28 03:01 476K
20260428T00Z_MSC_RDPS_WindSpeed_IsbL-0150_RLatLon0.09_PT068H.grib2 2026-04-28 03:01 381K
20260428T00Z_MSC_RDPS_WindSpeed_IsbL-0175_RLatLon0.09_PT068H.grib2 2026-04-28 03:01 427K
20260428T00Z_MSC_RDPS_WindSpeed_IsbL-0200_RLatLon0.09_PT068H.grib2 2026-04-28 03:01 446K
20260428T00Z_MSC_RDPS_WindSpeed_IsbL-0225_RLatLon0.09_PT068H.grib2 2026-04-28 03:01 452K
20260428T00Z_MSC_RDPS_WindSpeed_IsbL-0250_RLatLon0.09_PT068H.grib2 2026-04-28 03:01 456K
20260428T00Z_MSC_RDPS_WindSpeed_IsbL-0275_RLatLon0.09_PT068H.grib2 2026-04-28 03:01 474K
20260428T00Z_MSC_RDPS_WindSpeed_IsbL-0300_RLatLon0.09_PT068H.grib2 2026-04-28 03:01 470K
20260428T00Z_MSC_RDPS_WindSpeed_IsbL-0350_RLatLon0.09_PT068H.grib2 2026-04-28 03:01 481K
20260428T00Z_MSC_RDPS_WindSpeed_IsbL-0400_RLatLon0.09_PT068H.grib2 2026-04-28 03:01 482K
20260428T00Z_MSC_RDPS_WindSpeed_IsbL-0450_RLatLon0.09_PT068H.grib2 2026-04-28 03:01 465K
20260428T00Z_MSC_RDPS_WindSpeed_IsbL-0500_RLatLon0.09_PT068H.grib2 2026-04-28 03:01 466K
20260428T00Z_MSC_RDPS_WindSpeed_IsbL-0550_RLatLon0.09_PT068H.grib2 2026-04-28 03:01 466K
20260428T00Z_MSC_RDPS_WindSpeed_IsbL-0600_RLatLon0.09_PT068H.grib2 2026-04-28 03:01 592K
20260428T00Z_MSC_RDPS_WindSpeed_IsbL-0650_RLatLon0.09_PT068H.grib2 2026-04-28 03:01 613K
20260428T00Z_MSC_RDPS_WindSpeed_IsbL-0700_RLatLon0.09_PT068H.grib2 2026-04-28 03:01 639K
20260428T00Z_MSC_RDPS_WindSpeed_IsbL-0750_RLatLon0.09_PT068H.grib2 2026-04-28 03:01 712K
20260428T00Z_MSC_RDPS_WindSpeed_IsbL-0800_RLatLon0.09_PT068H.grib2 2026-04-28 03:01 754K
20260428T00Z_MSC_RDPS_WindSpeed_IsbL-0850_RLatLon0.09_PT068H.grib2 2026-04-28 03:01 807K
20260428T00Z_MSC_RDPS_WindSpeed_IsbL-0875_RLatLon0.09_PT068H.grib2 2026-04-28 03:01 829K
20260428T00Z_MSC_RDPS_WindSpeed_IsbL-0900_RLatLon0.09_PT068H.grib2 2026-04-28 03:01 845K
20260428T00Z_MSC_RDPS_WindSpeed_IsbL-0925_RLatLon0.09_PT068H.grib2 2026-04-28 03:01 855K
20260428T00Z_MSC_RDPS_WindSpeed_IsbL-0950_RLatLon0.09_PT068H.grib2 2026-04-28 03:01 855K
20260428T00Z_MSC_RDPS_WindSpeed_IsbL-0970_RLatLon0.09_PT068H.grib2 2026-04-28 03:01 856K
20260428T00Z_MSC_RDPS_WindSpeed_IsbL-0985_RLatLon0.09_PT068H.grib2 2026-04-28 03:01 849K
20260428T00Z_MSC_RDPS_WindSpeed_IsbL-1000_RLatLon0.09_PT068H.grib2 2026-04-28 03:01 843K
20260428T00Z_MSC_RDPS_WindSpeed_IsbL-1015_RLatLon0.09_PT068H.grib2 2026-04-28 03:01 832K
20260428T00Z_MSC_RDPS_WindU_AGL-10m_RLatLon0.09_PT068H.grib2 2026-04-28 03:01 430K
20260428T00Z_MSC_RDPS_WindU_AGL-120m_RLatLon0.09_PT068H.grib2 2026-04-28 03:01 415K
20260428T00Z_MSC_RDPS_WindU_AGL-40m_RLatLon0.09_PT068H.grib2 2026-04-28 03:01 533K
20260428T00Z_MSC_RDPS_WindU_AGL-80m_RLatLon0.09_PT068H.grib2 2026-04-28 03:01 532K
20260428T00Z_MSC_RDPS_WindU_IsbL-0001_RLatLon0.09_PT068H.grib2 2026-04-28 03:01 244K
20260428T00Z_MSC_RDPS_WindU_IsbL-0005_RLatLon0.09_PT068H.grib2 2026-04-28 03:01 286K
20260428T00Z_MSC_RDPS_WindU_IsbL-0010_RLatLon0.09_PT068H.grib2 2026-04-28 03:01 301K
20260428T00Z_MSC_RDPS_WindU_IsbL-0020_RLatLon0.09_PT068H.grib2 2026-04-28 03:01 356K
20260428T00Z_MSC_RDPS_WindU_IsbL-0030_RLatLon0.09_PT068H.grib2 2026-04-28 03:01 318K
20260428T00Z_MSC_RDPS_WindU_IsbL-0050_RLatLon0.09_PT068H.grib2 2026-04-28 03:01 344K
20260428T00Z_MSC_RDPS_WindU_IsbL-0100_RLatLon0.09_PT068H.grib2 2026-04-28 03:01 433K
20260428T00Z_MSC_RDPS_WindU_IsbL-0150_RLatLon0.09_PT068H.grib2 2026-04-28 03:01 399K
20260428T00Z_MSC_RDPS_WindU_IsbL-0175_RLatLon0.09_PT068H.grib2 2026-04-28 03:01 422K
20260428T00Z_MSC_RDPS_WindU_IsbL-0200_RLatLon0.09_PT068H.grib2 2026-04-28 03:01 341K
20260428T00Z_MSC_RDPS_WindU_IsbL-0225_RLatLon0.09_PT068H.grib2 2026-04-28 03:01 345K
20260428T00Z_MSC_RDPS_WindU_IsbL-0250_RLatLon0.09_PT068H.grib2 2026-04-28 03:01 347K
20260428T00Z_MSC_RDPS_WindU_IsbL-0275_RLatLon0.09_PT068H.grib2 2026-04-28 03:01 361K
20260428T00Z_MSC_RDPS_WindU_IsbL-0300_RLatLon0.09_PT068H.grib2 2026-04-28 03:01 357K
20260428T00Z_MSC_RDPS_WindU_IsbL-0350_RLatLon0.09_PT068H.grib2 2026-04-28 03:01 365K
20260428T00Z_MSC_RDPS_WindU_IsbL-0400_RLatLon0.09_PT068H.grib2 2026-04-28 03:01 471K
20260428T00Z_MSC_RDPS_WindU_IsbL-0450_RLatLon0.09_PT068H.grib2 2026-04-28 03:01 470K
20260428T00Z_MSC_RDPS_WindU_IsbL-0500_RLatLon0.09_PT068H.grib2 2026-04-28 03:01 472K
20260428T00Z_MSC_RDPS_WindU_IsbL-0550_RLatLon0.09_PT068H.grib2 2026-04-28 03:01 472K
20260428T00Z_MSC_RDPS_WindU_IsbL-0600_RLatLon0.09_PT068H.grib2 2026-04-28 03:01 464K
20260428T00Z_MSC_RDPS_WindU_IsbL-0650_RLatLon0.09_PT068H.grib2 2026-04-28 03:01 484K
20260428T00Z_MSC_RDPS_WindU_IsbL-0700_RLatLon0.09_PT068H.grib2 2026-04-28 03:01 507K
20260428T00Z_MSC_RDPS_WindU_IsbL-0750_RLatLon0.09_PT068H.grib2 2026-04-28 03:01 659K
20260428T00Z_MSC_RDPS_WindU_IsbL-0800_RLatLon0.09_PT068H.grib2 2026-04-28 03:01 699K
20260428T00Z_MSC_RDPS_WindU_IsbL-0850_RLatLon0.09_PT068H.grib2 2026-04-28 03:01 618K
20260428T00Z_MSC_RDPS_WindU_IsbL-0875_RLatLon0.09_PT068H.grib2 2026-04-28 03:01 635K
20260428T00Z_MSC_RDPS_WindU_IsbL-0900_RLatLon0.09_PT068H.grib2 2026-04-28 03:01 649K
20260428T00Z_MSC_RDPS_WindU_IsbL-0925_RLatLon0.09_PT068H.grib2 2026-04-28 03:01 655K
20260428T00Z_MSC_RDPS_WindU_IsbL-0950_RLatLon0.09_PT068H.grib2 2026-04-28 03:01 652K
20260428T00Z_MSC_RDPS_WindU_IsbL-0970_RLatLon0.09_PT068H.grib2 2026-04-28 03:01 651K
20260428T00Z_MSC_RDPS_WindU_IsbL-0985_RLatLon0.09_PT068H.grib2 2026-04-28 03:01 649K
20260428T00Z_MSC_RDPS_WindU_IsbL-1000_RLatLon0.09_PT068H.grib2 2026-04-28 03:01 785K
20260428T00Z_MSC_RDPS_WindU_IsbL-1015_RLatLon0.09_PT068H.grib2 2026-04-28 03:01 777K
20260428T00Z_MSC_RDPS_WindV_AGL-10m_RLatLon0.09_PT068H.grib2 2026-04-28 03:01 428K
20260428T00Z_MSC_RDPS_WindV_AGL-120m_RLatLon0.09_PT068H.grib2 2026-04-28 03:01 528K
20260428T00Z_MSC_RDPS_WindV_AGL-40m_RLatLon0.09_PT068H.grib2 2026-04-28 03:01 528K
20260428T00Z_MSC_RDPS_WindV_AGL-80m_RLatLon0.09_PT068H.grib2 2026-04-28 03:01 528K
20260428T00Z_MSC_RDPS_WindV_IsbL-0001_RLatLon0.09_PT068H.grib2 2026-04-28 03:01 246K
20260428T00Z_MSC_RDPS_WindV_IsbL-0005_RLatLon0.09_PT068H.grib2 2026-04-28 03:01 288K
20260428T00Z_MSC_RDPS_WindV_IsbL-0010_RLatLon0.09_PT068H.grib2 2026-04-28 03:01 305K
20260428T00Z_MSC_RDPS_WindV_IsbL-0020_RLatLon0.09_PT068H.grib2 2026-04-28 03:01 322K
20260428T00Z_MSC_RDPS_WindV_IsbL-0030_RLatLon0.09_PT068H.grib2 2026-04-28 03:01 321K
20260428T00Z_MSC_RDPS_WindV_IsbL-0050_RLatLon0.09_PT068H.grib2 2026-04-28 03:01 346K
20260428T00Z_MSC_RDPS_WindV_IsbL-0100_RLatLon0.09_PT068H.grib2 2026-04-28 03:01 427K
20260428T00Z_MSC_RDPS_WindV_IsbL-0150_RLatLon0.09_PT068H.grib2 2026-04-28 03:01 394K
20260428T00Z_MSC_RDPS_WindV_IsbL-0175_RLatLon0.09_PT068H.grib2 2026-04-28 03:01 419K
20260428T00Z_MSC_RDPS_WindV_IsbL-0200_RLatLon0.09_PT068H.grib2 2026-04-28 03:01 436K
20260428T00Z_MSC_RDPS_WindV_IsbL-0225_RLatLon0.09_PT068H.grib2 2026-04-28 03:01 441K
20260428T00Z_MSC_RDPS_WindV_IsbL-0250_RLatLon0.09_PT068H.grib2 2026-04-28 03:01 443K
20260428T00Z_MSC_RDPS_WindV_IsbL-0275_RLatLon0.09_PT068H.grib2 2026-04-28 03:01 461K
20260428T00Z_MSC_RDPS_WindV_IsbL-0300_RLatLon0.09_PT068H.grib2 2026-04-28 03:01 456K
20260428T00Z_MSC_RDPS_WindV_IsbL-0350_RLatLon0.09_PT068H.grib2 2026-04-28 03:01 465K
20260428T00Z_MSC_RDPS_WindV_IsbL-0400_RLatLon0.09_PT068H.grib2 2026-04-28 03:01 466K
20260428T00Z_MSC_RDPS_WindV_IsbL-0450_RLatLon0.09_PT068H.grib2 2026-04-28 03:01 466K
20260428T00Z_MSC_RDPS_WindV_IsbL-0500_RLatLon0.09_PT068H.grib2 2026-04-28 03:01 467K
20260428T00Z_MSC_RDPS_WindV_IsbL-0550_RLatLon0.09_PT068H.grib2 2026-04-28 03:01 468K
20260428T00Z_MSC_RDPS_WindV_IsbL-0600_RLatLon0.09_PT068H.grib2 2026-04-28 03:01 477K
20260428T00Z_MSC_RDPS_WindV_IsbL-0650_RLatLon0.09_PT068H.grib2 2026-04-28 03:01 480K
20260428T00Z_MSC_RDPS_WindV_IsbL-0700_RLatLon0.09_PT068H.grib2 2026-04-28 03:01 503K
20260428T00Z_MSC_RDPS_WindV_IsbL-0750_RLatLon0.09_PT068H.grib2 2026-04-28 03:01 528K
20260428T00Z_MSC_RDPS_WindV_IsbL-0800_RLatLon0.09_PT068H.grib2 2026-04-28 03:01 692K
20260428T00Z_MSC_RDPS_WindV_IsbL-0850_RLatLon0.09_PT068H.grib2 2026-04-28 03:01 612K
20260428T00Z_MSC_RDPS_WindV_IsbL-0875_RLatLon0.09_PT068H.grib2 2026-04-28 03:01 631K
20260428T00Z_MSC_RDPS_WindV_IsbL-0900_RLatLon0.09_PT068H.grib2 2026-04-28 03:01 784K
20260428T00Z_MSC_RDPS_WindV_IsbL-0925_RLatLon0.09_PT068H.grib2 2026-04-28 03:01 792K
20260428T00Z_MSC_RDPS_WindV_IsbL-0950_RLatLon0.09_PT068H.grib2 2026-04-28 03:01 789K
20260428T00Z_MSC_RDPS_WindV_IsbL-0970_RLatLon0.09_PT068H.grib2 2026-04-28 03:01 788K
20260428T00Z_MSC_RDPS_WindV_IsbL-0985_RLatLon0.09_PT068H.grib2 2026-04-28 03:01 785K
20260428T00Z_MSC_RDPS_WindV_IsbL-1000_RLatLon0.09_PT068H.grib2 2026-04-28 03:01 825K
20260428T00Z_MSC_RDPS_WindV_IsbL-1015_RLatLon0.09_PT068H.grib2 2026-04-28 03:01 818K